Location: Bonningues
(50.7927°N, 2.0150°E)
Time: 06:30:36
(UTC+00:00)

Cosmos 2333 - Pass Details

Date: 08 August 2020
Orbit: 830 x 866 km, 70.9° (Epoch: 23 September)

Event Time Altitude Azimuth Distance (km) Brightness Sun altitude
Rises 23:33:46 0° 328° (NNW) 3,461 8.5 -23.2°
Reaches altitude 10° 23:36:15 10° 327° (NNW) 2,520 7.5 -23.3°
Maximum altitude 23:42:01 70° 245° (WSW) 921 4.2 -23.3°
Enters shadow 23:43:12 55° 187° (S) 1,038 4.2 -23.4°
